Regional Weather Roundup
Issued by NWS

Home | Current Version | Previous Version | Graphics & Text | Print | Product List | Glossary On
Versions: 1 2 3 4 5 6 7 8 9 10 11 12 13 14 15 16 17 18 19 20 21 22 23 24 25 26 27 28 29 30 31 32 33 34 35 36 37 38 39 40 41 42 43 44 45 46 47 48 49 50
000
ASUS43 KFSD 281902
RWRSD

WEATHER ROUNDUP FOR SOUTH DAKOTA
NATIONAL WEATHER SERVICE SIOUX FALLS SD
200 PM CDT SAT MAR 28 2015

NOTE: "FAIR" INDICATES FEW OR NO CLOUDS BELOW 12,000 FEET WITH NO
SIGNIFICANT WEATHER AND/OR OBSTRUCTIONS TO VISIBILITY.


SDZ001>005-009-010-012>017-282000-
NORTHWEST AND NORTH CENTRAL SOUTH DAKOTA

CITY           SKY/WX    TMP DP  RH WIND       PRES   REMARKS
BUFFALO          N/A     74  33  22 S20G25    29.64F
FAITH            N/A     69  34  27 S18       29.75F
MOBRIDGE       SUNNY     59  34  39 S21       29.80F
$$

SDZ012>016-024>037-041>051-057-063-072>074-282000-
SOUTHWEST AND SOUTH CENTRAL SOUTH DAKOTA

CITY           SKY/WX    TMP DP  RH WIND       PRES   REMARKS
RAPID CTY ARPT SUNNY     78  34  20 SE21      29.75F
PIERRE         SUNNY     60  36  40 SE20G25   29.85F
CUSTER         SUNNY     68  28  22 W10G20    29.88F
ELLSWORTH AFB  SUNNY     76  33  20 SE12G21   29.75F
PHILIP         SUNNY     75  32  20 S15G22    29.78F
PINE RIDGE     SUNNY     76  32  20 SW10      29.82F
SPEARFISH      FAIR      75  32  20 W7        29.77F
WINNER         FAIR      67  34  29 S18G25    29.89F
$$

SDZ004>011-016>023-039-040-282000-
NORTHEAST SOUTH DAKOTA

CITY           SKY/WX    TMP DP  RH WIND       PRES   REMARKS
ABERDEEN       SUNNY     52  30  43 S23       29.94F
WATERTOWN      SUNNY     46  27  47 S24       29.99F
SISSETON         N/A     45  33  63 S24G30    29.98F
$$

SDZ017-020-022-023-036>040-048>070-282000-
SOUTHEAST SOUTH DAKOTA

CITY           SKY/WX    TMP DP  RH WIND       PRES   REMARKS
SIOUX FALLS    MOSUNNY   49  26  41 S18G29    30.06F
HURON          SUNNY     50  29  44 S20G29    29.96F
MITCHELL       SUNNY     52  30  43 SE23G30   30.00F
YANKTON        SUNNY     50  28  43 S18G24    30.05F
$$

ABBREVIATIONS USED IN REMARKS
   TC - TEMPERATURE IN CELSIUS
  WCI - WIND CHILL INDEX
   HX - HEAT INDEX
  VSB - VISIBILITY




USA.gov is the U.S. government's official web portal to all federal, state and local government web resources and services.